EW1179 Weather Reports


Display with metric or nautical units.
time (UTC)temp
F
wind
direction
speed
MPH
gust
MPH
rain 1hr
in
rain 24hr
in
rain mn
in
humidity
%
barometer
mb
20260902140038 45 279 0.0 0.0 0.00 0.00 0.00 89 1015.6
20260902134531 45 169 0.0 0.0 0.00 0.00 0.00 89 1015.6
20260902133030 46 306 0.0 0.0 0.00 0.00 0.00 89 1015.7
20260902131529 46 286 0.0 0.0 0.00 0.00 0.00 89 1015.7
20260902130038 46 286 0.0 0.0 0.00 0.00 0.00 89 1015.8
20260902124527 46 286 0.0 0.0 0.00 0.00 0.00 88 1015.7
20260902123030 46 286 0.0 0.0 0.00 0.00 0.00 88 1015.6
20260902121524 46 286 0.0 0.0 0.00 0.00 0.00 88 1015.7
20260902120024 46 286 0.0 0.0 0.00 0.00 0.00 88 1015.7
20260902114527 46 286 0.0 0.0 0.00 0.00 0.00 88 1015.6
20260902113021 47 286 0.0 0.0 0.00 0.00 0.00 88 1015.5
20260902111522 47 286 0.0 0.0 0.00 0.00 0.00 88 1015.4
20260902110028 47 255 0.0 0.0 0.00 0.00 0.00 87 1015.3
20260902104528 47 255 0.0 0.0 0.00 0.00 0.00 87 1015.3
20260902103017 47 255 0.0 0.0 0.00 0.00 0.00 87 1015.1
20260902101514 48 253 0.0 0.0 0.00 0.00 0.00 87 1015.1
20260902100014 48 330 0.0 0.0 0.00 0.00 0.00 87 1015.1
20260902094512 48 330 0.0 0.0 0.00 0.00 0.00 87 1015.2
20260902093017 48 330 0.0 0.0 0.00 0.00 0.00 86 1015.3
20260902091510 49 330 0.0 0.0 0.00 0.00 0.00 86 1015.4
20260902090008 49 330 0.0 0.0 0.00 0.00 0.00 86 1015.3
20260902084506 49 330 0.0 0.0 0.00 0.00 0.00 86 1015.5
20260902083005 49 348 0.0 0.0 0.00 0.00 0.00 85 1015.4
20260902081504 50 293 0.0 0.0 0.00 0.00 0.00 85 1015.3
20260902080002 50 293 0.0 0.0 0.00 0.00 0.00 85 1015.4
20260902074600 50 293 0.0 0.0 0.00 0.00 0.00 84 1015.3
20260902073057 51 293 0.0 0.0 0.00 0.00 0.00 84 1015.1
20260902071555 51 293 0.0 0.0 0.00 0.00 0.00 84 1015.1
20260902070053 52 314 0.0 0.0 0.00 0.00 0.00 83 1015.1
20260902064552 52 314 0.0 0.0 0.00 0.00 0.00 83 1015.0
20260902063104 53 314 0.0 0.0 0.00 0.00 0.00 82 1014.9
20260902061548 53 314 0.0 0.0 0.00 0.00 0.00 82 1015.0
20260902060059 54 323 0.0 0.0 0.00 0.00 0.00 81 1015.0
20260902054545 55 323 0.0 0.0 0.00 0.00 0.00 81 1014.9
20260902053046 55 323 0.0 0.0 0.00 0.00 0.00 81 1015.0
20260902051545 56 323 0.0 0.0 0.00 0.00 0.00 81 1015.0
20260902050043 56 323 0.0 0.0 0.00 0.00 0.00 81 1014.9
20260902044541 56 323 0.0 0.0 0.00 0.00 0.00 81 1014.7
20260902043048 57 40 0.0 0.0 0.00 0.00 0.00 80 1014.5
20260902041547 57 55 0.0 0.0 0.00 0.00 0.00 80 1014.3
20260902040040 57 114 0.0 0.0 0.00 0.00 0.00 80 1014.3
20260902034543 57 239 0.0 1.0 0.00 0.00 0.00 80 1013.9
20260902033048 57 148 0.0 6.0 0.00 0.00 0.00 79 1013.5
20260902031538 58 196 0.0 9.0 0.00 0.00 0.00 78 1013.3
20260902030045 58 213 0.0 6.0 0.00 0.00 0.00 77 1013.2
20260902024538 59 47 0.0 3.0 0.00 0.00 0.00 76 1013.2
20260902023044 59 98 0.0 1.0 0.00 0.00 0.00 76 1013.2
20260902021546 60 103 0.0 0.0 0.00 0.00 0.00 75 1013.2
20260902020037 61 91 0.0 0.0 0.00 0.00 0.00 73 1013.1
20260902014537 61 18 0.0 6.0 0.00 0.00 0.00 72 1013.2
20260902013035 62 326 0.0 0.0 0.00 0.00 0.00 70 1013.3
20260902011534 62 346 0.0 4.0 0.00 0.00 0.00 69 1013.1
20260902010034 63 198 0.0 6.0 0.00 0.00 0.00 67 1013.1
20260902004534 63 260 1.0 4.0 0.00 0.00 0.00 65 1013.2
20260902003033 64 288 1.0 9.0 0.00 0.00 0.00 63 1013.1
20260902001532 64 263 0.0 11.0 0.00 0.00 0.00 62 1012.9
20260902000032 65 220 0.0 6.0 0.00 0.00 0.00 61 1012.9
20260901234531 66 245 1.0 8.0 0.00 0.00 0.00 58 1013.0
20260901233030 67 250 1.0 7.0 0.00 0.00 0.00 56 1013.0
20260901231531 68 209 2.0 10.0 0.00 0.00 0.00 54 1013.1
20260901230035 70 229 3.0 7.0 0.00 0.00 0.00 49 1013.1
20260901224530 71 162 0.0 7.0 0.00 0.00 0.00 47 1013.1
20260901223029 71 112 2.0 7.0 0.00 0.00 0.00 48 1013.2
20260901221533 71 253 1.0 5.0 0.00 0.00 0.00 48 1013.4
20260901220052 71 225 3.0 8.0 0.00 0.00 0.00 47 1013.6
20260901214526 72 260 1.0 5.0 0.00 0.00 0.00 47 1013.6
20260901213057 71 219 1.0 5.0 0.00 0.00 0.00 50 1013.6
20260901211526 70 226 4.0 9.0 0.00 0.00 0.00 50 1013.7
20260901210026 71 167 1.0 9.0 0.00 0.00 0.00 48 1013.9
20260901204534 71 211 3.0 6.0 0.00 0.00 0.00 48 1013.9
20260901203044 71 196 3.0 15.0 0.00 0.00 0.00 48 1013.9
20260901201523 72 239 2.0 8.0 0.00 0.00 0.00 48 1013.8
20260901200029 73 243 2.0 7.0 0.00 0.00 0.00 47 1013.8
20260901194519 73 217 1.0 7.0 0.00 0.00 0.00 49 1014.0
20260901193018 73 222 0.0 5.0 0.00 0.00 0.00 49 1014.0
20260901191515 73 84 1.0 5.0 0.00 0.00 0.00 49 1014.1
20260901190012 72 179 0.0 4.0 0.00 0.00 0.00 50 1014.2
20260901184519 72 233 0.0 5.0 0.00 0.00 0.00 51 1014.2
20260901183004 70 277 0.0 1.0 0.00 0.00 0.00 54 1014.3
20260901181501 70 302 0.0 1.0 0.00 0.00 0.00 55 1014.4
20260901180058 69 268 0.0 2.0 0.00 0.00 0.00 56 1014.5
20260901174555 68 227 0.0 5.0 0.00 0.00 0.00 56 1014.6
20260901173059 67 173 0.0 4.0 0.00 0.00 0.00 58 1014.5
20260901171548 66 219 1.0 6.0 0.00 0.00 0.00 59 1014.4
20260901170052 65 214 0.0 4.0 0.00 0.00 0.00 62 1014.2
20260901164539 64 109 0.0 3.0 0.00 0.00 0.00 65 1014.3
20260901163034 63 215 0.0 5.0 0.00 0.00 0.00 68 1014.3
20260901161535 62 94 0.0 3.0 0.00 0.00 0.00 70 1014.3
20260901160031 62 138 0.0 2.0 0.00 0.00 0.00 71 1014.4
20260901154525 61 75 0.0 1.0 0.00 0.00 0.00 75 1014.3
20260901153027 59 118 0.0 0.0 0.00 0.00 0.00 79 1014.3
20260901151516 58 121 0.0 0.0 0.00 0.00 0.00 83 1014.3
20260901150012 56 61 0.0 0.0 0.00 0.00 0.00 86 1014.2
20260901144508 54 340 0.0 0.0 0.00 0.00 0.00 86 1014.1
20260901143003 54 340 0.0 0.0 0.00 0.00 0.00 85 1014.0
20260901141604 53 342 0.0 0.0 0.00 0.00 0.00 85 1013.9